カタログに戻る

STARLINK-34988

運用中通信SSO
NORAD 65453·PAYLOAD·🇺🇸 United States

打ち上げ Sep 3, 2025 から Vandenberg Space Force Base

Loading…

次のパス (今後24時間)

TLE

最新Source: CelesTrak SupGP

元期: Sep 14, 2026, 22:39 UTC

1 65453C 25194V   26257.94423611  .00066759  00000+0  47382-2 0  2571
2 65453  97.2851 108.2493 0001310  83.6321 279.7375 15.04801642    14

AllMySatでSTARLINK-34988をリアルタイム追跡

Download on the App Store